Weather History for Bryce Canyon, UT

Change the Weather History Date:

Wednesday, June 26, 2013

  Actual Average Record
Temperature  
Mean Temperature 62 °F -  
Max Temperature 86 °F 77 °F 91 °F (1981)
Min Temperature 39 °F 40 °F 23 °F (1985)
Degree Days  
Heating Degree Days 4    
Growing Degree Days 12 (Base 50)    
Moisture  
Dew Point 35 °F    
Average Humidity 38    
Maximum Humidity 77    
Minimum Humidity 16    
Precipitation  
Precipitation 0.00 in - - ()
Sea Level Pressure  
Sea Level Pressure 29.98 in    
Wind  
Wind Speed 4 mph (SW)    
Max Wind Speed 15 mph    
Max Gust Speed 25 mph    
Visibility 10 miles    
Events      
Averages and records for this station are not official NWS values.
T = Trace of Precipitation, MM = Missing Value Source: NWS Daily Summary

Daily Weather History Graph

Daily Weather History Graph

Search for Another Location

Airport:

Trip Planner

Search our weather history database for the weather conditions in past years. The results will help you decide how hot, cold, wet, or windy it might be!

Date:

Astronomy

Jun. 26, 2013 Rise Set
Actual Time 6:08 AM MDT 8:54 PM MDT
Civil Twilight 5:37 AM MDT 9:25 PM MDT
Nautical Twilight 4:58 AM MDT 10:04 PM MDT
Astronomical Twilight 4:13 AM MDT 10:48 PM MDT
Moon 11:24 PM MDT (6/26) 10:00 AM MDT (6/26)
Length of Visible Light 15h 48m
Length of Day
14h 45m
Waning Gibbous, 85% of the Moon is Illuminated
Jun 26
Waning Gibbous
Jun 29
Last Quarter
Jul 8
New
Jul 15
First Quarter
Jul 22
Full

Hourly Weather History & Observations

Time (MDT) Temp. Windchill Dew Point Humidity Pressure Visibility Wind Dir Wind Speed Gust Speed Precip Events Conditions
12:53 AM 45.0 °F - 30.0 °F 56% 29.96 in 10.0 mi Calm Calm - N/A   Clear
1:53 AM 45.0 °F - 32.0 °F 60% 29.96 in 10.0 mi Calm Calm - N/A   Clear
2:53 AM 41.0 °F - 30.9 °F 67% 29.97 in 10.0 mi Calm Calm - N/A   Clear
3:53 AM 42.1 °F 39.2 °F 33.1 °F 70% 29.97 in 10.0 mi SSW 4.6 mph - N/A   Clear
4:53 AM 39.9 °F 35.8 °F 33.1 °F 77% 29.99 in 10.0 mi WSW 5.8 mph - N/A   Clear
5:53 AM 43.0 °F 39.5 °F 34.0 °F 71% 29.99 in 10.0 mi West 5.8 mph - N/A   Clear
6:53 AM 45.0 °F - 35.1 °F 68% 30.00 in 10.0 mi Calm Calm - N/A   Clear
7:53 AM 55.0 °F - 37.9 °F 53% 29.98 in 10.0 mi Calm Calm - N/A   Clear
8:53 AM 66.0 °F - 39.0 °F 37% 29.96 in 10.0 mi Calm Calm - N/A   Clear
9:53 AM 71.1 °F - 39.0 °F 31% 29.99 in 10.0 mi West 12.7 mph 17.3 mph N/A   Clear
10:53 AM 73.9 °F - 37.0 °F 26% 30.02 in 10.0 mi West 11.5 mph - N/A   Clear
11:53 AM 78.1 °F - 36.0 °F 22% 30.01 in 10.0 mi WSW 10.4 mph 18.4 mph N/A   Clear
12:53 PM 80.1 °F - 37.0 °F 21% 30.00 in 10.0 mi SE 9.2 mph 17.3 mph N/A   Clear
1:53 PM 82.0 °F - 36.0 °F 19% 29.99 in 10.0 mi Calm Calm - N/A   Clear
2:53 PM 82.9 °F - 35.1 °F 18% 29.99 in 10.0 mi SSE 13.8 mph 21.9 mph N/A   Clear
3:53 PM 84.0 °F - 34.0 °F 17% 29.98 in 10.0 mi SE 15.0 mph 23.0 mph N/A   Clear
4:53 PM 84.9 °F - 33.1 °F 16% 29.97 in 10.0 mi ESE 13.8 mph 25.3 mph N/A   Clear
5:53 PM 84.0 °F - 35.1 °F 17% 29.95 in 10.0 mi Variable 3.5 mph 20.7 mph N/A   Partly Cloudy
6:53 PM 82.9 °F - 35.1 °F 18% 29.95 in 10.0 mi West 8.1 mph - N/A   Clear
7:53 PM 81.0 °F - 36.0 °F 20% 29.93 in 10.0 mi West 8.1 mph - N/A   Clear
8:53 PM 73.9 °F - 35.1 °F 24% 29.94 in 10.0 mi WSW 11.5 mph - N/A   Clear
9:53 PM 66.0 °F - 34.0 °F 30% 29.98 in 10.0 mi West 9.2 mph - N/A   Clear
10:53 PM 64.0 °F - 34.0 °F 33% 30.00 in 10.0 mi West 5.8 mph - N/A   Clear
11:53 PM 59.0 °F - 34.0 °F 39% 30.01 in 10.0 mi Calm Calm - N/A   Clear